When you browse on this site, cookies collect data to enhance your experience and personalize the content and advertising you see.
Visit our Privacy Policy to learn more. By continuing to use the site, you agree to this use of cookies and data.
  • In Österreich
  • Länderverzeichnis
  • Für 7 Tage
  • Wassertemperatur
  • Wetterkarte
  • News
  • Widgets
  • user-avatar
    Anmelden

    Stündliche Wetter Vanadzor

    Heute, 20 Februar, Donnerstag

    Zeit Temperatur Niederschläge Wind Luftdruck Luftfeuchtigkeit
    00:00 -1°C° 0 mm 1 m/S 631 mmHg 76%
    01:00 -1°C° 0 mm 1 m/S 631 mmHg 76%
    02:00 -1°C° 0 mm 1 m/S 630 mmHg 76%
    03:00 -1°C° 0 mm 1 m/S 630 mmHg 74%
    04:00 -1°C° 0 mm 1 m/S 630 mmHg 74%
    05:00 -2°C° 0 mm 0 m/S 630 mmHg 73%
    06:00 -2°C° 0 mm 0 m/S 630 mmHg 73%
    07:00 -1°C° 0 mm 0 m/S 630 mmHg 73%
    08:00 0°C° 0 mm 0 m/S 631 mmHg 74%
    09:00 +2°C° 0 mm 0 m/S 631 mmHg 74%
    10:00 +3°C° 0 mm 1 m/S 631 mmHg 77%
    11:00 +4°C° 0 mm 1 m/S 631 mmHg 80%
    12:00 +4°C° 0 mm 1 m/S 631 mmHg 83%
    13:00 +4°C° 0 mm 1 m/S 631 mmHg 82%
    14:00 +4°C° 0 mm 1 m/S 630 mmHg 82%
    15:00 +4°C° 0 mm 1 m/S 630 mmHg 81%
    16:00 +3°C° 0 mm 1 m/S 630 mmHg 83%
    17:00 +1°C° 0 mm 0 m/S 629 mmHg 85%
    18:00 0°C° 0 mm 0 m/S 629 mmHg 87%
    19:00 0°C° 0 mm 0 m/S 630 mmHg 87%
    20:00 -1°C° 0 mm 0 m/S 630 mmHg 87%
    21:00 0°C° 0 mm 1 m/S 630 mmHg 87%
    22:00 0°C° 0 mm 1 m/S 630 mmHg 87%
    23:00 0°C° 0 mm 1 m/S 630 mmHg 87%

    Morgen, 21 Februar, Freitag

    Zeit Temperatur Niederschläge Wind Luftdruck Luftfeuchtigkeit
    00:00 0°C° 0 mm 1 m/S 630 mmHg 88%
    01:00 0°C° 0 mm 1 m/S 630 mmHg 88%
    02:00 -2°C° 0 mm 2 m/S 630 mmHg 88%
    03:00 -3°C° 0 mm 2 m/S 630 mmHg 88%
    04:00 -3°C° 0 mm 2 m/S 630 mmHg 88%
    05:00 -3°C° 0 mm 2 m/S 630 mmHg 88%
    06:00 -3°C° 0 mm 2 m/S 630 mmHg 88%
    07:00 -2°C° 0 mm 2 m/S 631 mmHg 87%
    08:00 -1°C° 0 mm 2 m/S 632 mmHg 86%
    09:00 -1°C° 0 mm 2 m/S 632 mmHg 84%
    16:00 +2°C° 0 mm 2 m/S 632 mmHg 81%
    17:00 +1°C° 0 mm 2 m/S 632 mmHg 84%
    18:00 -1°C° 0 mm 2 m/S 632 mmHg 88%
    19:00 -2°C° 0 mm 2 m/S 632 mmHg 88%
    20:00 -2°C° 0 mm 2 m/S 632 mmHg 87%
    21:00 -2°C° 0 mm 2 m/S 633 mmHg 87%
    22:00 -2°C° 0 mm 2 m/S 633 mmHg 87%
    23:00 -2°C° 0 mm 2 m/S 633 mmHg 87%

    übermorgen, 22 Februar, Samstag

    Zeit Temperatur Niederschläge Wind Luftdruck Luftfeuchtigkeit
    00:00 -2°C° 0 mm 2 m/S 633 mmHg 87%
    01:00 -2°C° 0 mm 2 m/S 633 mmHg 86%
    02:00 -3°C° 0 mm 2 m/S 633 mmHg 86%
    03:00 -3°C° 0 mm 2 m/S 633 mmHg 86%
    04:00 -3°C° 0 mm 2 m/S 633 mmHg 85%
    05:00 -3°C° 0 mm 2 m/S 633 mmHg 85%
    06:00 -1°C° 0 mm 1 m/S 633 mmHg 84%
    07:00 0°C° 0 mm 1 m/S 633 mmHg 82%
    08:00 +1°C° 0 mm 1 m/S 633 mmHg 81%
    09:00 +2°C° 0 mm 1 m/S 634 mmHg 79%
    10:00 +3°C° 0 mm 1 m/S 634 mmHg 78%
    11:00 +3°C° 0 mm 1 m/S 634 mmHg 76%
    12:00 +4°C° 0 mm 1 m/S 634 mmHg 75%
    13:00 +5°C° 0 mm 1 m/S 634 mmHg 75%
    14:00 +4°C° 0 mm 0 m/S 634 mmHg 75%
    15:00 +4°C° 0 mm 0 m/S 633 mmHg 76%
    16:00 +3°C° 0 mm 1 m/S 633 mmHg 80%
    17:00 +2°C° 0 mm 1 m/S 633 mmHg 85%
    18:00 +1°C° 0 mm 1 m/S 632 mmHg 90%
    19:00 0°C° 0 mm 1 m/S 633 mmHg 89%
    20:00 0°C° 0 mm 1 m/S 633 mmHg 89%
    21:00 0°C° 0 mm 1 m/S 633 mmHg 88%
    22:00 0°C° 0 mm 1 m/S 633 mmHg 88%
    23:00 0°C° 0 mm 1 m/S 633 mmHg 88%

    23 Februar, Sonntag

    Zeit Temperatur Niederschläge Wind Luftdruck Luftfeuchtigkeit
    00:00 0°C° 0 mm 1 m/S 633 mmHg 88%
    01:00 0°C° 0 mm 1 m/S 633 mmHg 88%
    02:00 0°C° 0 mm 1 m/S 633 mmHg 87%
    03:00 -2°C° 0 mm 2 m/S 633 mmHg 87%
    04:00 0°C° 0.1 mm 1 m/S 633 mmHg 87%
    05:00 0°C° 0.1 mm 1 m/S 633 mmHg 88%
    06:00 +1°C° 0.1 mm 1 m/S 633 mmHg 88%
    07:00 +1°C° 0 mm 1 m/S 633 mmHg 86%
    08:00 +2°C° 0 mm 1 m/S 634 mmHg 85%
    09:00 +1°C° 0 mm 2 m/S 634 mmHg 83%
    10:00 +3°C° 0 mm 1 m/S 634 mmHg 82%
    11:00 +4°C° 0 mm 1 m/S 634 mmHg 80%
    12:00 +4°C° 0 mm 1 m/S 634 mmHg 78%
    13:00 +4°C° 0.1 mm 1 m/S 634 mmHg 79%
    14:00 +4°C° 0.1 mm 1 m/S 633 mmHg 80%
    15:00 +4°C° 0.1 mm 1 m/S 633 mmHg 81%
    16:00 +3°C° 0.1 mm 1 m/S 633 mmHg 84%
    17:00 +2°C° 0.1 mm 1 m/S 633 mmHg 86%
    18:00 +1°C° 0.1 mm 1 m/S 633 mmHg 89%
    19:00 -1°C° 0 mm 2 m/S 633 mmHg 88%
    20:00 -2°C° 0 mm 2 m/S 633 mmHg 88%
    21:00 -2°C° 0 mm 2 m/S 633 mmHg 87%
    22:00 -2°C° 0 mm 2 m/S 633 mmHg 87%
    23:00 -2°C° 0 mm 2 m/S 633 mmHg 86%

    24 Februar, Montag

    Zeit Temperatur Niederschläge Wind Luftdruck Luftfeuchtigkeit
    00:00 -2°C° 0 mm 2 m/S 633 mmHg 86%
    01:00 -2°C° 0 mm 2 m/S 632 mmHg 86%
    02:00 -2°C° 0 mm 2 m/S 632 mmHg 86%
    03:00 -2°C° 0 mm 2 m/S 632 mmHg 86%
    04:00 -3°C° 0 mm 2 m/S 632 mmHg 86%
    05:00 -3°C° 0 mm 2 m/S 631 mmHg 86%
    06:00 -3°C° 0 mm 2 m/S 631 mmHg 85%
    07:00 -2°C° 0.1 mm 2 m/S 631 mmHg 83%
    08:00 -1°C° 0.1 mm 2 m/S 631 mmHg 81%
    09:00 -1°C° 0.1 mm 2 m/S 631 mmHg 79%
    10:00 +1°C° 0 mm 2 m/S 631 mmHg 77%
    11:00 +2°C° 0 mm 2 m/S 631 mmHg 75%
    12:00 +2°C° 0 mm 2 m/S 630 mmHg 73%
    13:00 +2°C° 0 mm 2 m/S 630 mmHg 74%
    14:00 +2°C° 0 mm 2 m/S 629 mmHg 75%
    15:00 +2°C° 0 mm 2 m/S 628 mmHg 75%
    16:00 +2°C° 0.1 mm 2 m/S 628 mmHg 80%
    17:00 +2°C° 0.1 mm 1 m/S 628 mmHg 85%
    18:00 +1°C° 0.1 mm 1 m/S 627 mmHg 90%
    19:00 +1°C° 0.2 mm 1 m/S 627 mmHg 91%
    20:00 +1°C° 0.2 mm 1 m/S 627 mmHg 91%
    21:00 +1°C° 0.2 mm 1 m/S 627 mmHg 92%
    22:00 -1°C° 0.2 mm 2 m/S 626 mmHg 91%
    23:00 -1°C° 0.2 mm 2 m/S 626 mmHg 91%

    25 Februar, Dienstag

    Zeit Temperatur Niederschläge Wind Luftdruck Luftfeuchtigkeit
    00:00 -1°C° 0.2 mm 2 m/S 626 mmHg 91%
    01:00 -1°C° 0.3 mm 2 m/S 625 mmHg 90%
    02:00 -1°C° 0.3 mm 2 m/S 625 mmHg 90%
    03:00 -1°C° 0.3 mm 2 m/S 625 mmHg 90%
    04:00 -1°C° 0.5 mm 2 m/S 625 mmHg 92%
    05:00 -1°C° 0.5 mm 2 m/S 625 mmHg 93%
    06:00 -2°C° 0.5 mm 2 m/S 625 mmHg 95%
    07:00 -2°C° 1.1 mm 2 m/S 625 mmHg 88%
    08:00 -3°C° 1.1 mm 2 m/S 625 mmHg 82%
    09:00 -5°C° 1.1 mm 3 m/S 625 mmHg 76%
    10:00 -4°C° 0.1 mm 3 m/S 625 mmHg 71%
    11:00 -2°C° 0.1 mm 3 m/S 625 mmHg 65%
    12:00 -2°C° 0.1 mm 3 m/S 625 mmHg 60%
    13:00 -2°C° 0 mm 3 m/S 625 mmHg 59%
    14:00 -2°C° 0 mm 3 m/S 625 mmHg 58%
    15:00 -1°C° 0 mm 2 m/S 625 mmHg 58%
    16:00 -2°C° 0 mm 2 m/S 625 mmHg 62%
    17:00 -3°C° 0 mm 2 m/S 625 mmHg 66%
    18:00 -4°C° 0 mm 2 m/S 626 mmHg 71%
    19:00 -5°C° 0 mm 2 m/S 626 mmHg 72%
    20:00 -5°C° 0 mm 2 m/S 627 mmHg 73%
    21:00 -5°C° 0 mm 2 m/S 628 mmHg 75%
    22:00 -6°C° 0 mm 2 m/S 628 mmHg 75%
    23:00 -7°C° 0 mm 2 m/S 628 mmHg 75%
    Mehr zeigen